sat.trackr.live / text

‹ back to catalog

YAOGAN-32 02A

NORAD 49383 · 2021-099A

PAYLOAD ACTIVE UNKNOWN

§ Identity

Operator
Country
PRC
Launch date
2021-11-03
Launch site
JSC
Launch vehicle
Mass (kg)
RCS (m²)

External: N2YO · Heavens-Above · Gunter

§ Orbital elements

Epoch: 2026-05-25T05:00:44.301312Z

Period
98.35 min
Inclination
98.2439°
Eccentricity
0.0000301
Mean motion
14.64171136 rev/d
Perigee alt
679.5 km
Apogee alt
680.0 km
Semi-major
7,057.9 km
B*
1.3115e-4
RAAN
278.9920°
Arg perigee
45.6026°
Mean anomaly
314.5201°
Rev number
24,300

§ Raw data

YAOGAN-32 02A1 49383U 21099A   26145.20884608  .00000641  00000+0  13115-3 0  99962 49383  98.2439 278.9920 0000301  45.6026 314.5201 14.64171136243007

JSON: /api/v1/satellites/49383 · /tle

For live sub-satellite position, see the globe view (requires WebGL).

§ Visibility from observer

Set your observer location to see the next 7 days of passes ≥ 10°. The values pass through the URL so the page stays shareable.

No JS? Fill the form by hand. The geolocation button needs JavaScript.